Tracking 19246 objects as of 20-Aug-2018
HD Live streaming from Space Station
objects crossing your sky now

DMSP 5D-3 F18 DEB

Track DMSP 5D-3 F18 DEB now!
10-day predictions


NORAD ID: 35954
Int'l Code: 2009-057D
Perigee: 835.8 km
Apogee: 844.4 km
Inclination: 98.6 °
Period: 101.6 minutes
Semi major axis: 7211 km
RCS: 0.06 m2 (small)
Launch date: October 18, 2009
Source: United States (US)
Launch site: AIR FORCE WESTERN TEST RANGE (AFWTR)

Note: This is SATELLITE DEBRIS
aabbcc
Your satellite tracking list
Your tracking list is empty




NASA's NSSDC Master Catalog

Two Line Element Set (TLE):
1 35954U 09057D   18231.57514135 +.00000258 +00000-0 +14725-3 0  9990
2 35954 098.6267 261.5545 0005951 106.5559 044.9794 14.17754006456372
Source of the keplerian elements: AFSPC